Miscellaneous Local Product
Issued by NWS Hastings, NE

Home | Current Version | Previous Version | Text Only | Print | Product List | Glossary Off
Versions: 1 2 3 4 5 6 7 8 9 10 11 12 13 14 15 16 17 18 19 20 21 22 23 24 25 26 27 28 29 30 31 32 33 34 35 36 37 38 39 40 41 42 43 44 45 46 47 48 49 50

600
AXUS43 KGID 211402
MISGRI

GID CWA HOURLY WEATHER ROUNDUP
NATIONAL WEATHER SERVICE HASTINGS NE
900 AM CDT THU MAY 21 2015

NOTE: "FAIR" INDICATES FEW OR NO CLOUDS BELOW 12,000 FEET WITH NO
SIGNIFICANT WEATHER AND/OR OBSTRUCTIONS TO VISIBILITY.

...SOUTH CENTRAL NEBRASKA...

CITY           SKY/WX    TMP DP  RH WIND       PRES   REMARKS
GRAND ISLAND   SUNNY     49  40  71 NW10      30.31S
HASTINGS       SUNNY     50  41  71 NW9       30.30F
KEARNEY        SUNNY     46  39  76 NW7       30.32S
ORD            SUNNY     48  42  80 N8        30.29F
YORK           SUNNY     48  43  81 NW13      30.31R
AURORA         SUNNY     48  42  79 NW10      30.30S
LEXINGTON      SUNNY     44  43  96 NW7       30.32S
HOLDREGE       SUNNY     47  42  82 W3        30.31S
HEBRON         SUNNY     48  41  77 NW5       30.32S

...NEBRASKA PANHANDLE...

CITY           SKY/WX    TMP DP  RH WIND       PRES   REMARKS
CHADRON        MOSUNNY   42  36  79 CALM      30.28S
ALLIANCE       PTSUNNY   44  39  82 S9        30.27S
SCOTTSBLUFF    CLOUDY    43  38  82 E8        30.26F
SIDNEY         CLOUDY    43  38  82 S8        30.28S

...WESTERN AND NORTH CENTRAL NEBRASKA...

CITY           SKY/WX    TMP DP  RH WIND       PRES   REMARKS
VALENTINE      SUNNY     48  39  71 W6        30.29F
AINSWORTH      SUNNY     47  39  74 W10       30.29S
ONEILL         SUNNY     50  42  74 W9        30.28S
BROKEN BOW     SUNNY     51  38  60 NW7       30.30S
IMPERIAL       CLOUDY    46  40  79 S6        30.31S
NORTH PLATTE   SUNNY     45  40  82 CALM      30.32S
MCCOOK         SUNNY     47  42  83 SW5       30.31F

...EASTERN NEBRASKA...

CITY           SKY/WX    TMP DP  RH WIND       PRES   REMARKS
NORFOLK        SUNNY     51  42  71 W9        30.27S
SO SIOUX CITY  SUNNY     55  42  61 NW12      30.23F
TEKAMAH        SUNNY     55  43  63 NW9       30.25F
COLUMBUS       SUNNY     50  37  62 W8        30.32R
ALBION         SUNNY     49  41  74 NW8       30.29S
OMAHA EPPLEY   SUNNY     52  41  66 NW7       30.26F
MILLARD        SUNNY     50  41  71 NW6       30.27F
LINCOLN        SUNNY     54  41  61 NW12      30.30S
NEBRASKA CITY  SUNNY     50  43  76 W9        30.28S
BEATRICE       SUNNY     49  42  79 NW6       30.30S
FALLS CITY     SUNNY     50  45  83 W6        30.29S

...NORTHERN KANSAS...

CITY           SKY/WX    TMP DP  RH WIND       PRES   REMARKS
GOODLAND       CLOUDY    47  39  74 S10       30.31S
HILL CITY      SUNNY     49  42  77 CALM      30.32F
NORTON         SUNNY     48  36  61 N3        30.31S
PHILLIPSBURG   SUNNY     50  45  81 NW3       30.32F
SMITH CENTER   SUNNY     48  43  81 N7        30.32F
HAYS           SUNNY     48  36  61 N6        30.32S
RUSSELL        SUNNY     50  43  77 N8        30.31S
CONCORDIA      SUNNY     49  43  80 NW8       30.32S
SALINA         SUNNY     52  44  74 N9        30.32S
TOPEKA         SUNNY     52  43  71 N6        30.31S



USA.gov is the U.S. government's official web portal to all federal, state and local government web resources and services.